Norwegian Sky — C6PZ8 — position and weather

sailwx.info

Track history (hours):
 
Tides and Currents Weather Stations Pressure Air Temp Water Temp Dewpoint Dewpoint Depression Visibility Wind Speed Wind Dir Waves Ship Positions

Norwegian Sky (Norway)

Operator: Norwegian Cruise Line

Last reported at 2017-Mar-27 06:34 UTC. Time now 2017-Mar-27 06:50 UTC.
Position N 25°57' W 079°40'.

Length 259 m; draft 8 m.

Type: Ship. MMSI: 308865000.

Date/timePositionNaut miles runAvg speedWind from/ knotsBaromVisibWave heightAir tempDewpointWater temp
2017-Mar-27 06:34N 25°57' W 079°40'8 8.5
2017-Mar-27 05:33N 26°01' W 079°32'8 8.0
2017-Mar-27 04:33N 26°04' W 079°24'92 2.0
2017-Mar-25 07:00N 25°54' W 077°42'9714.3 060 / 301022.0 21.0
2017-Mar-25 00:12N 26°02' W 079°30'914.5
2017-Mar-24 23:33N 25°57' W 079°39'1514.9
2017-Mar-24 22:33N 25°50' W 079°54'1111.1
2017-Mar-24 21:33N 25°46' W 080°05'4 4.1
2017-Mar-24 20:31N 25°46' W 080°10'0 0.0
2017-Mar-24 19:33N 25°46' W 080°10'0 0.0
2017-Mar-24 18:33N 25°46' W 080°10'0 0.0
2017-Mar-24 17:33N 25°46' W 080°10'0 0.0
2017-Mar-24 16:33N 25°46' W 080°10'0 0.0
2017-Mar-24 15:33N 25°46' W 080°10'0 0.0
2017-Mar-24 14:31N 25°46' W 080°10'0 0.0
2017-Mar-24 13:31N 25°46' W 080°10'0 0.0
2017-Mar-24 12:33N 25°46' W 080°10'0 0.0
2017-Mar-24 11:33N 25°46' W 080°10'0 0.0
2017-Mar-24 10:33N 25°46' W 080°10'2 1.9
2017-Mar-24 09:33N 25°46' W 080°08'8 8.0
2017-Mar-24 08:33N 25°48' W 079°60'8 8.3
2017-Mar-24 07:33N 25°52' W 079°51'8 8.0
2017-Mar-24 06:33N 25°56' W 079°43'8 8.2
2017-Mar-24 05:33N 26°00' W 079°36'9 8.5
2017-Mar-24 04:33N 26°05' W 079°28'8 8.4
2017-Mar-24 03:33N 26°10' W 079°21'  
2017-Mar-21 03:06N 26°09' W 079°27'4 8.2
2017-Mar-21 02:33N 26°06' W 079°30'8 8.2
2017-Mar-21 01:33N 26°01' W 079°37'8 8.2
2017-Mar-21 00:33N 25°56' W 079°45'8 8.6
2017-Mar-20 23:33N 25°51' W 079°53'9 8.7
2017-Mar-20 22:33N 25°47' W 080°01'8 8.1
2017-Mar-20 21:33N 25°47' W 080°10'0 0.3
2017-Mar-20 20:33N 25°47' W 080°10'0 0.0
2017-Mar-20 19:33N 25°47' W 080°10'0 0.0
2017-Mar-20 18:32N 25°47' W 080°10'0 0.0
2017-Mar-20 17:32N 25°47' W 080°10'0 0.0
2017-Mar-20 16:31N 25°47' W 080°10'0 0.0
2017-Mar-20 15:31N 25°47' W 080°10'0 0.0
2017-Mar-20 14:31N 25°47' W 080°10'0 0.0
2017-Mar-20 13:33N 25°47' W 080°10'0 0.0
2017-Mar-20 12:33N 25°47' W 080°10'0 0.0
2017-Mar-20 11:32N 25°47' W 080°10'0 0.0
2017-Mar-20 10:33N 25°47' W 080°10'3 2.8
2017-Mar-20 09:33N 25°46' W 080°07'10 9.8
2017-Mar-20 08:33N 25°49' W 079°57'8 8.3
2017-Mar-20 07:33N 25°53' W 079°49'8 8.1
2017-Mar-20 06:33N 25°56' W 079°41'8 7.8
2017-Mar-20 05:33N 26°00' W 079°33'8 7.8
2017-Mar-20 04:33N 26°04' W 079°25'8 8.1
2017-Mar-20 03:33N 26°08' W 079°18'15 0.3
2017-Mar-18 00:31N 26°00' W 079°33'1111.7
2017-Mar-17 23:33N 25°55' W 079°44'1211.7
2017-Mar-17 22:33N 25°50' W 079°55'1010.0
2017-Mar-17 21:33N 25°46' W 080°06'4 3.8
2017-Mar-17 20:31N 25°46' W 080°10'0 0.0
2017-Mar-17 19:33N 25°46' W 080°10'0 0.0
2017-Mar-17 18:33N 25°46' W 080°10'0 0.0
2017-Mar-17 17:32N 25°46' W 080°10'0 0.0
2017-Mar-17 16:32N 25°46' W 080°10'0 0.0
2017-Mar-17 15:28N 25°46' W 080°10'0 0.0
2017-Mar-17 14:31N 25°46' W 080°10'0 0.0
2017-Mar-17 13:31N 25°46' W 080°10'0 0.0
2017-Mar-17 12:33N 25°46' W 080°10'0 0.0
2017-Mar-17 11:33N 25°46' W 080°10'0 0.0
2017-Mar-17 10:33N 25°46' W 080°10'0 0.5
2017-Mar-17 09:33N 25°46' W 080°09'9 9.2
2017-Mar-17 08:33N 25°48' W 079°59'9 8.7
2017-Mar-17 07:33N 25°52' W 079°51'  
Track history (hours):
 
Tides and Currents Weather Stations Pressure Air Temp Water Temp Dewpoint Dewpoint Depression Visibility Wind Speed Wind Dir Waves Ship Positions

Norwegian Sky (Norway)

Operator: Norwegian Cruise Line

Last reported at 2017-Mar-27 06:34 UTC. Time now 2017-Mar-27 06:50 UTC.
Position N 25°57' W 079°40'.

Length 259 m; draft 8 m.

Type: Ship. MMSI: 308865000.

Date/timePositionNaut miles runAvg speedWind from/ knotsBaromVisibWave heightAir tempDewpointWater temp
2017-Mar-27 06:34N 25°57' W 079°40'8 8.5
2017-Mar-27 05:33N 26°01' W 079°32'8 8.0
2017-Mar-27 04:33N 26°04' W 079°24'92 2.0
2017-Mar-25 07:00N 25°54' W 077°42'9714.3 060 / 301022.0 21.0
2017-Mar-25 00:12N 26°02' W 079°30'914.5
2017-Mar-24 23:33N 25°57' W 079°39'1514.9
2017-Mar-24 22:33N 25°50' W 079°54'1111.1
2017-Mar-24 21:33N 25°46' W 080°05'4 4.1
2017-Mar-24 20:31N 25°46' W 080°10'0 0.0
2017-Mar-24 19:33N 25°46' W 080°10'0 0.0
2017-Mar-24 18:33N 25°46' W 080°10'0 0.0
2017-Mar-24 17:33N 25°46' W 080°10'0 0.0
2017-Mar-24 16:33N 25°46' W 080°10'0 0.0
2017-Mar-24 15:33N 25°46' W 080°10'0 0.0
2017-Mar-24 14:31N 25°46' W 080°10'0 0.0
2017-Mar-24 13:31N 25°46' W 080°10'0 0.0
2017-Mar-24 12:33N 25°46' W 080°10'0 0.0
2017-Mar-24 11:33N 25°46' W 080°10'0 0.0
2017-Mar-24 10:33N 25°46' W 080°10'2 1.9
2017-Mar-24 09:33N 25°46' W 080°08'8 8.0
2017-Mar-24 08:33N 25°48' W 079°60'8 8.3
2017-Mar-24 07:33N 25°52' W 079°51'8 8.0
2017-Mar-24 06:33N 25°56' W 079°43'8 8.2
2017-Mar-24 05:33N 26°00' W 079°36'9 8.5
2017-Mar-24 04:33N 26°05' W 079°28'8 8.4
2017-Mar-24 03:33N 26°10' W 079°21'  
2017-Mar-21 03:06N 26°09' W 079°27'4 8.2
2017-Mar-21 02:33N 26°06' W 079°30'8 8.2
2017-Mar-21 01:33N 26°01' W 079°37'8 8.2
2017-Mar-21 00:33N 25°56' W 079°45'8 8.6
2017-Mar-20 23:33N 25°51' W 079°53'9 8.7
2017-Mar-20 22:33N 25°47' W 080°01'8 8.1
2017-Mar-20 21:33N 25°47' W 080°10'0 0.3
2017-Mar-20 20:33N 25°47' W 080°10'0 0.0
2017-Mar-20 19:33N 25°47' W 080°10'0 0.0
2017-Mar-20 18:32N 25°47' W 080°10'0 0.0
2017-Mar-20 17:32N 25°47' W 080°10'0 0.0
2017-Mar-20 16:31N 25°47' W 080°10'0 0.0
2017-Mar-20 15:31N 25°47' W 080°10'0 0.0
2017-Mar-20 14:31N 25°47' W 080°10'0 0.0
2017-Mar-20 13:33N 25°47' W 080°10'0 0.0
2017-Mar-20 12:33N 25°47' W 080°10'0 0.0
2017-Mar-20 11:32N 25°47' W 080°10'0 0.0
2017-Mar-20 10:33N 25°47' W 080°10'3 2.8
2017-Mar-20 09:33N 25°46' W 080°07'10 9.8
2017-Mar-20 08:33N 25°49' W 079°57'8 8.3
2017-Mar-20 07:33N 25°53' W 079°49'8 8.1
2017-Mar-20 06:33N 25°56' W 079°41'8 7.8
2017-Mar-20 05:33N 26°00' W 079°33'8 7.8
2017-Mar-20 04:33N 26°04' W 079°25'8 8.1
2017-Mar-20 03:33N 26°08' W 079°18'15 0.3
2017-Mar-18 00:31N 26°00' W 079°33'1111.7
2017-Mar-17 23:33N 25°55' W 079°44'1211.7
2017-Mar-17 22:33N 25°50' W 079°55'1010.0
2017-Mar-17 21:33N 25°46' W 080°06'4 3.8
2017-Mar-17 20:31N 25°46' W 080°10'0 0.0
2017-Mar-17 19:33N 25°46' W 080°10'0 0.0
2017-Mar-17 18:33N 25°46' W 080°10'0 0.0
2017-Mar-17 17:32N 25°46' W 080°10'0 0.0
2017-Mar-17 16:32N 25°46' W 080°10'0 0.0
2017-Mar-17 15:28N 25°46' W 080°10'0 0.0
2017-Mar-17 14:31N 25°46' W 080°10'0 0.0
2017-Mar-17 13:31N 25°46' W 080°10'0 0.0
2017-Mar-17 12:33N 25°46' W 080°10'0 0.0
2017-Mar-17 11:33N 25°46' W 080°10'0 0.0
2017-Mar-17 10:33N 25°46' W 080°10'0 0.5
2017-Mar-17 09:33N 25°46' W 080°09'9 9.2
2017-Mar-17 08:33N 25°48' W 079°59'9 8.7
2017-Mar-17 07:33N 25°52' W 079°51'  

Dump ship's entire track history